Home   Weather   Nuuk   Past weeks
Flag for Greenland

Past Weather in Nuuk, Greenland — Yesterday and Last 2 Weeks

Now
30 °F

Passing clouds.


Feels Like: 25 °F
Forecast: 40 / 33 °F
Wind: 5 mph from East

Location: Godthaab / Nuuk

Current Time: Oct 23, 2019 at 8:19:37 am

Latest Report: Oct 23, 2019 at 6:50 am


Visibility: N/A

Pressure: 30.39 "Hg

Humidity: 80%

Dew Point: 25 °F

Location of NuukLocation

Past Weather in Nuuk — Graph

°F

Nuuk Temperature Yesterday

Maximum temperature yesterday: 36 °F (at 2:50 pm)
Minimum temperature yesterday: 32 °F (at 6:50 am)
Average temperature yesterday: 34 °F

High & Low Weather Summary for the Past Weeks

 TemperatureHumidityPressure
High45 °F (Oct 9, 3:50 pm)100% (Oct 11, 8:50 am)30.39 "Hg (Oct 11, 8:50 am)
Low25 °F (Oct 14, 10:50 pm)35% (Oct 16, 12:50 am)29.45 "Hg (Oct 8, 6:50 am)
Average34 °F74%29.91 "Hg
* Reported Oct 8 6:50 am — Oct 23 6:50 am, Nuuk. Weather by CustomWeather, © 2019

Note: Actual official high and low records may vary slightly from our data, if they occured in-between our weather recording intervals... More about our weather records

Advertising

Nuuk Weather History for the Previous 24 Hours

Scroll right to see more
 ConditionsComfort  
Time TempWeatherWind HumidityBarometerVisibility
6:50 am
Wed, Oct 23
30 °FPassing clouds.5 mph80%30.39 "HgN/A
5:50 am30 °FPassing clouds.5 mph80%30.36 "HgN/A
4:50 am30 °FPassing clouds.2 mph80%30.39 "HgN/A
3:50 am30 °FChilly.5 mph86%30.39 "HgN/A
2:50 am32 °FPassing clouds.3 mph80%30.39 "HgN/A
1:50 am30 °FChilly.7 mph86%30.36 "HgN/A
12:50 am30 °FPassing clouds.3 mph86%30.36 "HgN/A
11:50 pm
Tue, Oct 22
32 °FPassing clouds.14 mph87%30.36 "HgN/A
10:50 pm34 °FPassing clouds.13 mph87%30.36 "HgN/A
9:50 pm34 °FPassing clouds.18 mph87%30.33 "HgN/A
8:50 pm34 °FPassing clouds.17 mph87%30.30 "HgN/A
7:50 pm34 °FPartly cloudy.17 mph87%30.30 "HgN/A
6:50 pm34 °FPassing clouds.20 mph93%30.27 "HgN/A
5:50 pm34 °FPassing clouds.16 mph93%30.27 "HgN/A
4:50 pm36 °FBroken clouds.16 mph87%30.24 "HgN/A
3:50 pm36 °FScattered clouds.6 mph60%30.21 "HgN/A
2:50 pm36 °FScattered clouds.9 mph60%30.18 "HgN/A
1:50 pm34 °FScattered clouds.9 mph70%30.18 "HgN/A
12:50 pm34 °FPartly sunny.15 mph70%30.12 "HgN/A
11:50 am34 °FPartly sunny.9 mph70%30.12 "HgN/A
10:50 am34 °FScattered clouds.10 mph51%30.12 "HgN/A
9:50 am32 °FScattered clouds.15 mph64%30.09 "HgN/A
8:50 am32 °FPassing clouds.15 mph64%30.09 "HgN/A
Weather by CustomWeather, © 2019

See weather overview